TimeMST,TemperatureF,Dew PointF,Humidity,Sea Level PressureIn,VisibilityMPH,Wind Direction,Wind SpeedMPH,Gust SpeedMPH,PrecipitationIn,Events,Conditions,WindDirDegrees,DateUTC
12:53 AM,26.1,17.1,69,30.51,10.0,South,6.9,-,N/A,,Clear,180,2012-11-23 07:53:00
1:53 AM,28.0,17.1,63,30.46,10.0,SSW,10.4,-,N/A,,Clear,200,2012-11-23 08:53:00
2:53 AM,30.9,17.1,57,30.43,10.0,South,11.5,-,N/A,,Clear,180,2012-11-23 09:53:00
3:53 AM,30.0,16.0,56,30.42,10.0,South,9.2,-,N/A,,Clear,190,2012-11-23 10:53:00
4:53 AM,34.0,17.1,50,30.38,10.0,SSW,15.0,-,N/A,,Partly Cloudy,200,2012-11-23 11:53:00
5:53 AM,37.9,16.0,41,30.34,10.0,SSW,18.4,-,N/A,,Clear,200,2012-11-23 12:53:00
6:53 AM,39.0,15.1,38,30.33,10.0,SSW,18.4,24.2,N/A,,Partly Cloudy,200,2012-11-23 13:53:00
7:53 AM,39.0,16.0,39,30.32,10.0,SSW,20.7,-,N/A,,Mostly Cloudy,200,2012-11-23 14:53:00
8:53 AM,39.0,17.1,41,30.32,10.0,South,12.7,-,N/A,,Clear,190,2012-11-23 15:53:00
9:53 AM,42.1,18.0,38,30.27,10.0,SSW,25.3,34.5,N/A,,Clear,210,2012-11-23 16:53:00
10:53 AM,43.0,19.0,38,30.25,10.0,SW,26.5,-,N/A,,Clear,220,2012-11-23 17:53:00
11:53 AM,46.9,21.0,36,30.22,10.0,SSW,19.6,26.5,N/A,,Clear,200,2012-11-23 18:53:00
12:53 PM,50.0,23.0,35,30.17,10.0,SSW,15.0,25.3,N/A,,Clear,210,2012-11-23 19:53:00
1:53 PM,53.1,23.0,31,30.13,10.0,SW,23.0,34.5,N/A,,Clear,220,2012-11-23 20:53:00
2:53 PM,52.0,23.0,32,30.11,10.0,SW,26.5,31.1,N/A,,Clear,220,2012-11-23 21:53:00
3:53 PM,50.0,23.0,35,30.12,10.0,SSW,19.6,28.8,N/A,,Clear,210,2012-11-23 22:53:00
4:53 PM,48.0,23.0,37,30.12,10.0,SSW,18.4,-,N/A,,Clear,210,2012-11-23 23:53:00
5:53 PM,46.9,23.0,39,30.09,10.0,SW,23.0,-,N/A,,Clear,220,2012-11-24 00:53:00
6:53 PM,46.9,24.1,41,30.07,10.0,SSW,20.7,-,N/A,,Clear,210,2012-11-24 01:53:00
7:53 PM,46.9,24.1,41,30.05,10.0,SSW,16.1,23.0,N/A,,Clear,210,2012-11-24 02:53:00
8:53 PM,48.0,24.1,39,30.01,10.0,SSW,23.0,-,N/A,,Clear,210,2012-11-24 03:53:00
9:53 PM,48.9,23.0,36,29.99,10.0,SSW,24.2,31.1,N/A,,Clear,210,2012-11-24 04:53:00
10:53 PM,48.9,23.0,36,29.97,10.0,SW,24.2,33.4,N/A,,Clear,220,2012-11-24 05:53:00
11:53 PM,48.9,23.0,36,29.96,10.0,SSW,21.9,29.9,N/A,,Clear,210,2012-11-24 06:53:00